Estación de Pirque

Ultimos registro cada 15 minutos 58
Estación Fecha / Hora Temperatura Humedad Lluvia Velocidad Dirección Radiación Presion
58 Pirque 06-05-2026 14:15 12,7 93,2 0 0 285 69,4 941,1
57 Pirque 06-05-2026 14:00 12,6 93,1 0 0 302 45,6 941
56 Pirque 06-05-2026 13:45 12,4 91,9 0 0 321 55,6 941,1
55 Pirque 06-05-2026 13:30 12,3 91,2 0 0 241 71,9 941
54 Pirque 06-05-2026 13:15 12,5 90,8 0 0 250 33,1 941,1
53 Pirque 06-05-2026 13:00 12,6 91 0 0 244 166,9 941,1
52 Pirque 06-05-2026 12:45 12 90 0,2 0 241 11,9 940,9
51 Pirque 06-05-2026 12:30 12,6 85,3 0 0 256 20,6 940,7
50 Pirque 06-05-2026 12:15 13,7 79,1 0 0,5 271 55,6 940,3
49 Pirque 06-05-2026 12:00 15,9 68 0 0 250 174,4 939,9
48 Pirque 06-05-2026 11:45 15,9 67,9 0 0 250 93,1 939,8
47 Pirque 06-05-2026 11:30 15,9 67,1 0 0,5 264 191,9 939,9
46 Pirque 06-05-2026 11:15 16,2 64,2 0 0 274 83,1 939,9
45 Pirque 06-05-2026 11:00 16,5 63,7 0 0 270 71,9 939,4
44 Pirque 06-05-2026 10:45 17,2 62,6 0 0 271 125,6 939,2
43 Pirque 06-05-2026 10:30 17,1 62,6 0 0 263 139,4 938,8
42 Pirque 06-05-2026 10:15 17,9 66,3 0 0 261 249,4 939
41 Pirque 06-05-2026 10:00 17,1 68,3 0 0 261 274,4 939
40 Pirque 06-05-2026 09:45 16,6 71 0 0 267 158,1 939,2
39 Pirque 06-05-2026 09:30 17,2 71,8 0 0 316 336,9 939,4
38 Pirque 06-05-2026 09:15 15,5 76,6 0 0 316 189,4 939,8
37 Pirque 06-05-2026 09:00 14,9 82,7 0 0 314 234,4 939,3
36 Pirque 06-05-2026 08:45 11,5 90,5 0 0 303 195,6 939,5
35 Pirque 06-05-2026 08:30 9,2 94,5 0 0 303 166,9 939,9
34 Pirque 06-05-2026 08:15 8 95,7 0 0 305 114,4 939,8
33 Pirque 06-05-2026 08:00 6,6 96,4 0 0 303 64,4 939,9
32 Pirque 06-05-2026 07:45 4,4 96,2 0 0 303 9,4 939,8
31 Pirque 06-05-2026 07:30 4,9 96,3 0 0 303 3,1 939,4
30 Pirque 06-05-2026 07:15 5,2 95,8 0 0 303 0,6 939,1
29 Pirque 06-05-2026 07:00 5,1 96 0 0 303 0,6 939
28 Pirque 06-05-2026 06:45 5,2 95,6 0 0 303 0,6 939,1
27 Pirque 06-05-2026 06:30 6,3 95,6 0 0 303 0,6 938,9
26 Pirque 06-05-2026 06:15 6,8 95,5 0 0 300 0,6 938,7
25 Pirque 06-05-2026 06:00 7,2 95,7 0 0 295 0,6 938,5
24 Pirque 06-05-2026 05:45 6,9 96,1 0 0 293 0,6 938,3
23 Pirque 06-05-2026 05:30 6,1 95,8 0 0 293 0,6 937,9
22 Pirque 06-05-2026 05:15 6 95,9 0 0 293 0,6 937,8
21 Pirque 06-05-2026 05:00 5,8 95,5 0 0 293 0,6 937,6
20 Pirque 06-05-2026 04:45 6,5 95,4 0 0 293 0,6 937,4
19 Pirque 06-05-2026 04:30 6,5 95,5 0 0 293 0,6 937,9
18 Pirque 06-05-2026 04:15 6,4 95,2 0 0 284 0,6 937,9
17 Pirque 06-05-2026 04:00 5,9 95,3 0 0 271 0,6 937,7
16 Pirque 06-05-2026 03:45 5,4 94,9 0 0 271 0,6 937,6
15 Pirque 06-05-2026 03:30 6,1 94,3 0 0 271 0,6 937,5
14 Pirque 06-05-2026 03:15 7 94,2 0 0 271 0,6 937,2
13 Pirque 06-05-2026 03:00 7 94,2 0 0 271 0,6 937,4
12 Pirque 06-05-2026 02:45 7,7 93,4 0 0 271 0,6 937,7
11 Pirque 06-05-2026 02:30 8,4 93,3 0 0 271 0,6 937,8
10 Pirque 06-05-2026 02:15 8,6 92,9 0 0 271 0,6 937,6
9 Pirque 06-05-2026 02:00 9 92,4 0 0 271 0,6 937,7
8 Pirque 06-05-2026 01:45 8,8 93,1 0 0 271 0,6 938
7 Pirque 06-05-2026 01:30 8,5 92,3 0 0 271 0,6 938,2
6 Pirque 06-05-2026 01:15 8,8 91,8 0 0 271 0,6 938,3
5 Pirque 06-05-2026 01:00 8,6 91,8 0 0 271 0,6 938,3
4 Pirque 06-05-2026 00:45 8,9 91,6 0 0 271 0,6 938,3
3 Pirque 06-05-2026 00:30 9,1 91,2 0 0 271 0,6 938,3
2 Pirque 06-05-2026 00:15 9 90,5 0 0 271 0,6 938,6
1 Pirque 06-05-2026 00:00 9,5 90,1 0 0 271 0,6 938,3